[[{"header":{"parameterUnit":"m.s-1","parameterCategory":1,"la1":30.2991,"la2":30.254,"lo1":-89.0895,"lo2":-89.0444,"dy":0.0017,"dx":0.0017,"nx":28,"ny":28,"refTime":"2025-12-22T09:00:00:Z","depth":0,"parameterNumber":2,"parameterNumberName":"U-component_of_WINDS"},"data":[0,0,0,0,0,0,0,0,0,0,0,0,0,0,0,0,0,0,0,0,0,0,0,0,0,0,0,0,0,0,0,0,0,0,0,0,0,0,0,0,0,0,0,0,0,0,0,0,0,0,0,0,0,0,0,0,0,0,-2.6366,-2.6365,0,-2.6338,-2.6337,-2.6337,-2.6265,-2.6263,-2.6262,-2.626,-2.6234,-2.6235,-2.6235,0,0,0,0,0,0,0,0,0,0,0,0,0,-2.636,-2.636,-2.6366,-2.6365,-2.6365,-2.6338,-2.6337,-2.6337,-2.6265,-2.6263,-2.6262,-2.626,-2.6234,-2.6234,-2.6235,0,0,0,0,0,0,0,0,0,0,0,0,0,-2.635,-2.636,-2.6366,-2.6326,-2.6322,-2.6338,-2.6337,-2.6337,-2.6266,-2.6263,-2.6261,-2.6259,-2.6233,-2.6234,-2.6235,-2.6288,0,0,-2.6239,-2.6239,0,0,0,0,0,0,0,0,-2.6351,-2.635,-2.6332,-2.6329,-2.6324,-2.6302,-2.6325,-2.6321,-2.6266,-2.6287,-2.626,-2.6258,-2.6259,-2.6257,-2.6257,-2.6287,-2.6286,-2.6239,-2.6239,-2.624,-2.624,0,0,0,0,0,0,0,-2.6351,-2.6351,-2.6354,-2.6332,-2.6327,-2.631,-2.6306,-2.6324,-2.6286,-2.6285,-2.628,-2.6277,-2.6256,-2.6256,-2.6256,-2.6285,-2.6239,-2.624,-2.624,-2.6241,-2.6357,-2.6359,0,0,0,0,0,0,-2.6358,-2.6352,-2.6355,-2.6354,-2.6332,-2.6312,-2.6308,-2.6312,-2.6286,-2.628,-2.6279,-2.6274,-2.6256,-2.6255,-2.6255,-2.6314,-2.624,-2.6241,-2.6242,-2.6354,-2.6357,-2.636,0,0,0,0,0,0,-2.6358,-2.6358,-2.6357,-2.6351,-2.635,-2.6315,-2.632,-2.6312,-2.6313,-2.6281,-2.6275,-2.6286,-2.6254,-2.6253,-2.628,-2.6313,-2.6241,-2.6242,-2.6352,-2.6355,-2.6359,-2.6434,0,0,0,0,0,0,-2.6358,-2.6359,-2.6378,-2.6352,-2.635,-2.6382,-2.6322,-2.6314,-2.6314,-2.6307,-2.6286,-2.6281,-2.6252,-2.6279,-2.6281,-2.6313,-2.6243,-2.6349,-2.6353,-2.6358,-2.6429,-2.644,-2.645,0,0,0,0,0,-2.6358,-2.6401,-2.6379,-2.638,-2.6373,-2.6384,-2.6383,-2.6348,-2.6317,-2.6336,-2.6317,-2.6281,-2.6309,-2.6282,-2.6284,-2.6317,-2.6346,-2.6352,-2.6357,-2.6424,-2.6438,-2.645,0,0,0,0,0,0,-2.6432,-2.6397,-2.6372,-2.6408,-2.64,-2.6372,-2.6394,-2.6364,-2.6364,-2.6358,-2.6316,-2.6312,-2.6345,-2.6333,-2.6304,-2.6366,-2.6322,-2.6328,-2.6372,-2.6385,-2.6395,-2.6397,-2.6244,0,0,0,0,0,-2.6452,-2.6463,-2.6432,-2.6467,-2.6463,-2.643,-2.6433,-2.6408,-2.6397,-2.6393,-2.6375,-2.6367,-2.6374,-2.6379,-2.6383,-2.6428,-2.6422,-2.6451,-2.6461,-2.647,-2.6476,-2.6498,-2.651,-2.6378,-2.6378,-2.6378,0,0,-2.6494,-2.6477,-2.6486,-2.6481,-2.6471,-2.6484,-2.6427,-2.6443,-2.6452,-2.6396,-2.6419,-2.6406,-2.6394,-2.643,-2.6445,-2.6422,-2.6511,-2.6477,-2.6484,-2.6485,-2.6505,-2.6518,-2.6529,-2.6382,-2.6381,-2.6381,0,0,-2.6577,-2.6565,-2.6592,-2.6584,-2.6569,-2.6547,-2.6554,-2.6531,-2.652,-2.6543,-2.6501,-2.6512,-2.6524,-2.6517,-2.6516,-2.6598,-2.6565,-2.6601,-2.6655,-2.6678,-2.6688,-2.6697,-2.6726,-2.6737,-2.6606,-2.6607,-2.6607,0,-2.6632,-2.6648,-2.6611,-2.6629,-2.6628,-2.6578,-2.6605,-2.6599,-2.6588,-2.6588,-2.6563,-2.6578,-2.6566,-2.6599,-2.6619,-2.662,-2.6627,-2.6602,-2.6689,-2.6698,-2.6706,-2.6733,-2.6744,-2.6611,-2.661,-2.661,-2.661,0,-2.6715,-2.6728,-2.6752,-2.6741,-2.6743,-2.6766,-2.6733,-2.674,-2.6715,-2.6696,-2.672,-2.6705,-2.6705,-2.6712,-2.6687,-2.6742,-2.6728,-2.6697,-2.6651,-2.6723,-2.6748,-2.6758,-2.6617,-2.6615,-2.6614,-2.6613,0,0,-2.6843,-2.6812,-2.6821,-2.6815,-2.6796,-2.6805,-2.6827,-2.6827,-2.6833,-2.6828,-2.6845,-2.6857,-2.6828,-2.6826,-2.6801,-2.6821,-2.6886,-2.6787,-2.6786,-2.6805,-2.6945,-2.6968,-2.6981,-2.6865,-2.6867,-2.6869,-2.6946,0,-2.692,-2.6954,-2.6921,-2.6961,-2.6972,-2.6925,-2.6944,-2.6935,-2.6918,-2.6925,-2.6907,-2.6916,-2.6877,-2.6876,-2.6893,-2.6875,-2.6914,-2.6869,-2.6881,-2.6882,-2.6884,-2.6993,-2.7018,-2.7091,-2.6955,-2.6957,-2.6958,0,-2.7015,-2.7013,-2.7054,-2.7032,-2.7036,-2.7053,-2.705,-2.7058,-2.7047,-2.7034,-2.7032,-2.7002,-2.7022,-2.6978,-2.7006,-2.6976,-2.6979,-2.6971,-2.6973,-2.6972,-2.6923,-2.6995,-2.7114,-2.7125,-2.6973,-2.6972,-2.6971,0,-2.7103,-2.711,-2.7136,-2.7133,-2.7109,-2.7122,-2.7113,-2.7099,-2.7102,-2.71,-2.7101,-2.7103,-2.7103,-2.7105,-2.7076,-2.7047,-2.7108,-2.7061,-2.7097,-2.7098,-2.711,-2.711,-2.7231,-2.7115,-2.7114,-2.7114,-2.7114,0,-2.7192,-2.7219,-2.7175,-2.719,-2.7219,-2.7183,-2.7213,-2.7199,-2.7188,-2.72,-2.7161,-2.7174,-2.7135,-2.7144,-2.7122,-2.7148,-2.7149,-2.7138,-2.7132,-2.7141,-2.7142,-2.7142,-2.7136,-2.7117,-2.7117,-2.7116,-2.7115,0,-2.7294,-2.7266,-2.729,-2.7266,-2.726,-2.7283,-2.7262,-2.7276,-2.7257,-2.7274,-2.7275,-2.7246,-2.7254,-2.7226,-2.723,-2.7215,-2.7253,-2.7239,-2.7257,-2.7252,-2.7289,-2.7285,-2.7413,-2.7428,-2.7303,-2.7304,-2.7305,0,-2.7352,-2.7372,-2.7349,-2.7355,-2.7347,-2.7357,-2.7358,-2.7324,-2.7328,-2.7317,-2.7333,-2.7338,-2.734,-2.7357,-2.7336,-2.7339,-2.7324,-2.7369,-2.7325,-2.7333,-2.7324,-2.7323,-2.7325,-2.7378,-2.7379,-2.7381,-2.7382,0,-2.7458,-2.7444,-2.7447,-2.7447,-2.7451,-2.7449,-2.7444,-2.7451,-2.7414,-2.742,-2.7428,-2.743,-2.7435,-2.7441,-2.744,-2.7431,-2.7401,-2.7396,-2.7404,-2.7413,-2.7423,-2.7417,-2.7281,-2.7393,-2.7392,-2.7391,-2.739,-2.739,-2.754,-2.7555,-2.7541,-2.7547,-2.754,-2.7537,-2.7549,-2.7531,-2.7537,-2.7538,-2.7517,-2.753,-2.7519,-2.7515,-2.7509,-2.7519,-2.7499,-2.7511,-2.7513,-2.7517,-2.7523,-2.7422,-2.7519,-2.7519,-2.7518,-2.7518,-2.7518,0,-2.7643,-2.7632,-2.7638,-2.7633,-2.7638,-2.7609,-2.7602,-2.7609,-2.762,-2.7612,-2.7616,-2.7625,-2.7631,-2.7612,-2.7615,-2.7626,-2.7613,-2.7628,-2.7627,-2.7625,-2.7541,-2.7533,-2.764,-2.764,-2.764,-2.764,-2.764,-2.7639,-2.7697,-2.7721,-2.7705,-2.7726,-2.7715,-2.7726,-2.7725,-2.7722,-2.7716,-2.7729,-2.7733,-2.772,-2.7708,-2.771,-2.7714,-2.7708,-2.7711,-2.7732,-2.7721,-2.7643,-2.7631,-2.762,-2.7612,-2.7733,-2.7733,-2.7804,-2.7805,-2.7805]},{"header":{"parameterUnit":"m.s-1","parameterCategory":1,"la1":30.2991,"la2":30.254,"lo1":-89.0895,"lo2":-89.0444,"dy":0.0017,"dx":0.0017,"nx":28,"ny":28,"refTime":"2025-12-22T09:00:00:Z","depth":0,"parameterNumber":3,"parameterNumberName":"V-component_of_WINDS"},"data":[0,0,0,0,0,0,0,0,0,0,0,0,0,0,0,0,0,0,0,0,0,0,0,0,0,0,0,0,0,0,0,0,0,0,0,0,0,0,0,0,0,0,0,0,0,0,0,0,0,0,0,0,0,0,0,0,0,0,0.4725,0.4726,0,0.4811,0.4812,0.4813,0.4915,0.4916,0.4918,0.4919,0.5005,0.5006,0.5007,0,0,0,0,0,0,0,0,0,0,0,0,0,0.4649,0.465,0.4725,0.4726,0.4727,0.4811,0.4812,0.4813,0.4914,0.4916,0.4918,0.492,0.5005,0.5006,0.5007,0,0,0,0,0,0,0,0,0,0,0,0,0,0.4703,0.465,0.4725,0.4788,0.4794,0.4811,0.4812,0.4814,0.4914,0.4916,0.4919,0.4921,0.5004,0.5006,0.5007,0.4968,0,0,0.5011,0.5011,0,0,0,0,0,0,0,0,0.47,0.4706,0.4778,0.4784,0.4791,0.4855,0.4817,0.4865,0.4913,0.4868,0.4919,0.4922,0.4953,0.4959,0.497,0.4972,0.4975,0.5011,0.5012,0.5012,0.5012,0,0,0,0,0,0,0,0.4696,0.4702,0.4759,0.4779,0.4787,0.4812,0.4822,0.4826,0.4896,0.4873,0.488,0.4889,0.4957,0.4968,0.4972,0.4977,0.5011,0.5012,0.5013,0.5013,0.4953,0.4951,0,0,0,0,0,0,0.4683,0.4699,0.4756,0.4762,0.475,0.4811,0.4823,0.4832,0.4897,0.4909,0.4887,0.4893,0.4965,0.4971,0.4976,0.4936,0.5012,0.5013,0.5014,0.4955,0.4953,0.495,0,0,0,0,0,0,0.4681,0.4687,0.4753,0.4732,0.4743,0.481,0.4819,0.4832,0.4843,0.4908,0.492,0.4885,0.4967,0.4974,0.497,0.494,0.5014,0.5015,0.4958,0.4955,0.4951,0.4854,0,0,0,0,0,0,0.4678,0.4686,0.4671,0.4731,0.4743,0.4745,0.4817,0.4832,0.4845,0.4855,0.4909,0.4921,0.4969,0.4967,0.4971,0.4943,0.5016,0.4961,0.4957,0.4952,0.486,0.4847,0.4837,0,0,0,0,0,0.4675,0.464,0.467,0.4676,0.4727,0.4743,0.475,0.4807,0.4843,0.4829,0.4871,0.4919,0.4942,0.4966,0.4971,0.4943,0.4963,0.4958,0.4953,0.4865,0.485,0.4837,0,0,0,0,0,0,0.4573,0.4648,0.4683,0.4666,0.4698,0.476,0.4745,0.4789,0.481,0.4818,0.4888,0.4899,0.4887,0.4914,0.4939,0.4909,0.496,0.4955,0.4892,0.4878,0.4866,0.486,0.5017,0,0,0,0,0,0.4549,0.4556,0.4621,0.46,0.4614,0.4676,0.4686,0.4727,0.4762,0.4776,0.4817,0.4849,0.4864,0.4872,0.4889,0.4864,0.4879,0.4848,0.4836,0.4826,0.4822,0.4812,0.48,0.4933,0.4933,0.4933,0,0,0.4499,0.4541,0.4541,0.4581,0.461,0.4616,0.4687,0.469,0.4696,0.4776,0.4776,0.4807,0.4847,0.4833,0.4828,0.4855,0.4788,0.4819,0.4811,0.4812,0.4805,0.4793,0.4781,0.4929,0.493,0.493,0,0,0.4411,0.4442,0.4429,0.4458,0.4502,0.4543,0.454,0.4597,0.4621,0.4621,0.4683,0.469,0.4713,0.474,0.4757,0.468,0.4726,0.4684,0.4623,0.4613,0.4602,0.4594,0.4568,0.4557,0.4679,0.4679,0.4679,0,0.4342,0.4354,0.4417,0.4417,0.4433,0.4507,0.4495,0.4519,0.4565,0.4575,0.4605,0.4638,0.467,0.4664,0.4645,0.4656,0.4655,0.4678,0.4599,0.4591,0.4583,0.4559,0.4549,0.4673,0.4674,0.4675,0.4675,0,0.4269,0.4276,0.426,0.4305,0.4319,0.4313,0.4374,0.4381,0.4422,0.446,0.446,0.4502,0.453,0.4531,0.457,0.4531,0.4546,0.4586,0.4639,0.4564,0.4543,0.4534,0.4666,0.4668,0.4669,0.4671,0,0,0.4119,0.4199,0.4192,0.4214,0.4269,0.4276,0.4273,0.4301,0.4306,0.4336,0.4336,0.4355,0.4393,0.4412,0.4455,0.4446,0.4384,0.4488,0.449,0.4468,0.4345,0.4315,0.4304,0.4415,0.4413,0.4412,0.4342,0,0.4041,0.4042,0.4098,0.4083,0.4091,0.4163,0.416,0.4194,0.423,0.4242,0.4283,0.4296,0.4344,0.4356,0.4351,0.4393,0.4361,0.4399,0.4416,0.4416,0.4404,0.4292,0.426,0.4193,0.4334,0.4333,0.4332,0,0.3951,0.3977,0.3962,0.4019,0.4025,0.4022,0.4053,0.4064,0.4103,0.4131,0.4152,0.4201,0.4203,0.4252,0.4256,0.428,0.4291,0.4313,0.4312,0.4316,0.437,0.4295,0.4172,0.4162,0.4319,0.432,0.4321,0,0.3844,0.3876,0.3872,0.3888,0.3954,0.395,0.3977,0.4019,0.4033,0.406,0.407,0.4096,0.411,0.413,0.4185,0.4215,0.4183,0.4236,0.4206,0.4205,0.4196,0.4196,0.4075,0.4201,0.4201,0.4201,0.4202,0,0.3752,0.3741,0.3825,0.3822,0.3812,0.3877,0.3865,0.3899,0.3936,0.3942,0.4005,0.4009,0.4081,0.4093,0.4136,0.4134,0.4139,0.4162,0.4174,0.4157,0.4154,0.4165,0.4171,0.4199,0.4199,0.42,0.42,0,0.3632,0.3687,0.3688,0.375,0.3766,0.3756,0.381,0.381,0.3851,0.3857,0.3863,0.3926,0.3944,0.4001,0.4032,0.4062,0.4046,0.4068,0.4033,0.4041,0.4008,0.401,0.389,0.3878,0.401,0.4009,0.4008,0,0.357,0.3563,0.3625,0.3634,0.3659,0.3671,0.3686,0.375,0.3763,0.3809,0.3804,0.3827,0.3849,0.3874,0.3923,0.3948,0.3972,0.3928,0.3976,0.396,0.3972,0.3972,0.3973,0.3917,0.3915,0.3914,0.3913,0,0.3454,0.3482,0.3502,0.353,0.3547,0.3572,0.3602,0.3605,0.3677,0.3688,0.3708,0.3725,0.3758,0.378,0.3814,0.3842,0.3889,0.3897,0.3892,0.3875,0.3855,0.3867,0.4006,0.39,0.3901,0.3902,0.3903,0.3903,0.3362,0.336,0.3404,0.3423,0.3452,0.3479,0.3483,0.3525,0.3542,0.3575,0.3612,0.3627,0.3669,0.3718,0.3743,0.3756,0.3782,0.3773,0.3772,0.3769,0.3761,0.3853,0.3762,0.3763,0.3763,0.3764,0.3764,0,0.3251,0.3283,0.33,0.334,0.3356,0.34,0.3435,0.3445,0.3458,0.3493,0.3513,0.3537,0.3559,0.361,0.3638,0.3639,0.3661,0.3644,0.3645,0.3651,0.3736,0.3739,0.3625,0.3625,0.3625,0.3625,0.3625,0.3625,0.3195,0.3194,0.3228,0.3242,0.3275,0.3291,0.3308,0.3332,0.3361,0.3384,0.3403,0.3437,0.3479,0.351,0.3533,0.3548,0.3555,0.3531,0.3552,0.3631,0.3644,0.3657,0.366,0.3532,0.3531,0.3466,0.3465,0.3465]}]]